N5AJY Weather Reports


time (UTC)temp
C
wind
direction
speed
KPH
gust
KPH
rain 1hr
cm
rain 24hr
cm
rain mn
cm
humidity
%
barometer
mb
20260506104653 8 0 0.0 0.0 0.00 0.00 0.00 78 1011.6
20260506104154 8 0 0.0 0.0 0.00 0.00 0.00 78 1011.6
20260506103653 8 0 0.0 0.0 0.00 0.00 0.00 78 1011.6
20260506103154 8 0 0.0 0.0 0.00 0.00 0.00 78 1011.7
20260506102154 8 0 0.0 0.0 0.00 0.00 0.00 78 1011.7
20260506101653 8 0 0.0 0.0 0.00 0.00 0.00 78 1011.5
20260506101154 8 0 0.0 0.0 0.00 0.00 0.00 78 1011.4
20260506100653 8 0 0.0 0.0 0.00 0.00 0.00 78 1011.4
20260506100152 8 0 0.0 0.0 0.00 0.00 0.00 78 1011.3
20260506095654 8 0 0.0 0.0 0.00 0.00 0.00 78 1011.3
20260506095153 8 0 0.0 0.0 0.00 0.00 0.00 78 1011.0
20260506094654 8 0 0.0 0.0 0.00 0.00 0.00 78 1010.7
20260506094153 8 0 0.0 0.0 0.00 0.00 0.00 78 1010.4
20260506093655 8 0 0.0 0.0 0.00 0.00 0.00 78 1010.4
20260506093153 9 0 0.0 0.0 0.00 0.00 0.00 79 1010.2
20260506092654 9 0 0.0 0.0 0.00 0.00 0.00 79 1010.0
20260506092153 9 0 0.0 0.0 0.00 0.00 0.00 79 1009.8
20260506091654 9 0 0.0 0.0 0.00 0.00 0.00 79 1009.6
20260506091153 9 0 0.0 0.0 0.00 0.00 0.00 79 1009.6
20260506090653 9 0 0.0 0.0 0.00 0.00 0.00 79 1009.5
20260506090154 9 0 0.0 0.0 0.00 0.00 0.00 79 1009.4
20260506085652 9 0 0.0 0.0 0.00 0.00 0.00 79 1009.6
20260506085154 9 0 0.0 0.0 0.00 0.00 0.00 79 1009.4
20260506084653 9 0 0.0 0.0 0.00 0.00 0.00 79 1009.3
20260506084154 9 0 0.0 0.0 0.00 0.00 0.00 79 1009.2
20260506083653 9 0 0.0 0.0 0.00 0.00 0.00 79 1008.9
20260506083154 9 0 0.0 0.0 0.00 0.00 0.00 79 1008.8
20260506082653 9 0 0.0 0.0 0.00 0.00 0.00 79 1009.1
20260506082154 9 0 0.0 0.0 0.00 0.00 0.00 79 1008.9
20260506081153 9 0 0.0 0.0 0.00 0.00 0.00 78 1009.1
20260506080654 9 0 0.0 0.0 0.00 0.00 0.00 78 1008.8
20260506080153 9 0 0.0 0.0 0.00 0.00 0.00 78 1009.1
20260506073153 10 18 0.0 1.6 0.00 0.00 0.00 77 1009.1
20260506072654 10 0 0.0 0.0 0.00 0.00 0.00 77 1009.3
20260506072153 10 0 0.0 0.0 0.00 0.00 0.00 77 1009.2
20260506071652 10 0 0.0 0.0 0.00 0.00 0.00 77 1009.0
20260506071153 10 0 0.0 0.0 0.00 0.00 0.00 77 1008.9
20260506070653 10 0 0.0 0.0 0.00 0.00 0.00 77 1008.7
20260506070154 10 0 0.0 0.0 0.00 0.00 0.00 77 1008.7
20260506062154 10 70 0.0 4.8 0.00 0.00 0.00 76 1008.7
20260506061653 10 73 0.0 3.2 0.00 0.00 0.00 76 1008.8
20260506061154 10 93 0.0 6.4 0.00 0.00 0.00 76 1008.6
20260506060653 10 78 0.0 6.4 0.00 0.00 0.00 76 1008.8
20260506060158 10 49 0.0 4.8 0.00 0.00 0.00 77 1009.1
20260506051153 10 34 0.0 4.8 0.00 0.00 0.00 78 1008.4
20260506050654 10 46 0.0 6.4 0.00 0.00 0.00 79 1008.5
20260506050153 9 48 0.0 6.4 0.00 0.00 0.00 80 1008.5
20260506044654 9 23 0.0 3.2 0.00 0.00 0.00 80 1008.8
20260506044153 9 29 0.0 3.2 0.00 0.00 0.00 80 1008.9
20260506043654 9 45 0.0 3.2 0.00 0.00 0.00 80 1008.9
20260506043154 9 40 0.0 3.2 0.00 0.00 0.00 80 1008.9
20260506042653 9 35 0.0 3.2 0.00 0.00 0.00 80 1008.8
20260506042152 10 37 0.0 1.6 0.00 0.00 0.00 80 1008.9
20260506041654 10 29 0.0 1.6 0.00 0.00 0.00 81 1009.0
20260506041152 10 0 0.0 0.0 0.00 0.00 0.00 81 1008.8
20260506040653 10 54 0.0 1.6 0.00 0.00 0.00 81 1008.8
20260506040153 10 54 0.0 1.6 0.00 0.00 0.00 81 1009.0
20260506035653 10 0 0.0 0.0 0.00 0.00 0.00 81 1008.9
20260506035152 10 0 0.0 0.0 0.00 0.00 0.00 81 1008.8
20260506034654 10 0 0.0 0.0 0.00 0.00 0.00 81 1008.8
20260506034153 10 27 0.0 1.6 0.00 0.00 0.00 81 1008.8
20260506033654 10 27 0.0 1.6 0.00 0.00 0.00 81 1008.9
20260506033153 10 41 0.0 4.8 0.00 0.00 0.00 81 1008.8
20260506032654 10 41 0.0 4.8 0.00 0.00 0.00 81 1008.8
20260506032153 10 29 0.0 6.4 0.00 0.00 0.00 81 1008.9
20260506031704 10 29 0.0 6.4 0.00 0.00 0.00 81 1008.8
20260506031153 10 0 0.0 0.0 0.00 0.00 0.00 81 1008.5
20260506030654 10 347 0.0 3.2 0.00 0.00 0.00 81 1008.2
20260506030158 10 347 0.0 3.2 0.00 0.00 0.00 81 1008.2
20260506025654 10 26 0.0 3.2 0.00 0.00 0.00 81 1008.1
20260506025153 10 32 0.0 3.2 0.00 0.00 0.00 81 1007.8
20260506024655 10 45 0.0 1.6 0.00 0.00 0.00 81 1007.7
20260506024153 10 42 0.0 3.2 0.00 0.00 0.00 81 1007.6
20260506023654 10 43 0.0 3.2 0.00 0.00 0.00 81 1007.6
20260506023153 10 36 0.0 1.6 0.00 0.00 0.00 81 1007.4
20260506022653 10 20 0.0 1.6 0.00 0.00 0.00 81 1007.4
20260506022154 10 1 0.0 1.6 0.00 0.00 0.00 81 1007.2
20260506021653 10 27 0.0 6.4 0.00 0.00 0.00 81 1007.0
20260506021154 10 36 0.0 6.4 0.00 0.00 0.00 81 1006.9
20260506020653 10 0 0.0 0.0 0.00 0.00 0.00 82 1006.8
20260506020154 10 11 0.0 1.6 0.00 0.00 0.00 82 1006.6
20260506015709 10 26 0.0 1.6 0.00 0.00 0.00 82 1006.5
20260506015158 10 20 0.0 3.2 0.00 0.00 0.00 81 1006.4
20260506014153 10 39 0.0 4.8 0.00 0.00 0.00 81 1006.1
20260506013653 10 29 0.0 4.8 0.00 0.00 0.00 81 1006.1
20260506013154 10 22 0.0 3.2 0.00 0.00 0.00 80 1006.1
20260506012652 10 49 0.0 1.6 0.00 0.00 0.00 80 1005.9
20260506012153 10 42 0.0 6.4 0.00 0.00 0.00 80 1006.0
20260506011652 10 37 0.0 11.3 0.00 0.00 0.00 80 1006.0
20260506011153 10 46 0.0 11.3 0.00 0.00 0.00 80 1006.0
20260506010652 10 51 0.0 8.0 0.00 0.00 0.00 79 1005.8
20260506010154 10 39 0.0 1.6 0.00 0.00 0.00 79 1005.9
20260506005653 10 46 0.0 16.1 0.00 0.00 0.00 79 1005.9
20260506005154 10 46 0.0 16.1 0.00 0.00 0.00 79 1006.0
20260506004653 10 44 0.0 4.8 0.00 0.00 0.00 79 1006.0
20260506004154 10 54 0.0 1.6 0.00 0.00 0.00 79 1006.0
20260506003653 10 20 0.0 3.2 0.00 0.00 0.00 79 1005.9
20260506003154 10 47 0.0 11.3 0.00 0.00 0.00 78 1005.4
20260506002653 10 47 0.0 11.3 0.00 0.00 0.00 78 1005.4
20260506002154 10 37 0.0 6.4 0.00 0.00 0.00 78 1005.3
20260506001653 10 34 0.0 4.8 0.00 0.00 0.00 78 1005.5
20260506001154 10 41 0.0 4.8 0.00 0.00 0.00 78 1005.6
20260506000653 10 36 0.0 4.8 0.00 0.00 0.00 77 1005.6
20260506000152 10 42 0.0 4.8 0.00 0.00 0.00 77 1005.6
20260505235654 10 53 0.0 4.8 0.00 0.00 0.00 77 1005.7
20260505235153 10 42 0.0 3.2 0.00 0.00 0.00 77 1005.6
20260505234654 10 38 0.0 8.0 0.00 0.00 0.00 77 1005.5
20260505234153 10 39 0.0 8.0 0.00 0.00 0.00 77 1005.6
20260505233654 10 41 0.0 16.1 0.00 0.00 0.00 76 1005.4
20260505233153 10 40 1.6 24.1 0.00 0.00 0.00 76 1005.6
20260505232654 10 39 1.6 24.1 0.00 0.00 0.00 76 1005.5
20260505232153 10 29 0.0 6.4 0.00 0.00 0.00 76 1005.4
20260505231653 10 33 0.0 6.4 0.00 0.00 0.00 75 1005.1
20260505231153 11 42 0.0 16.1 0.00 0.00 0.00 74 1005.0
20260505230653 11 48 0.0 16.1 0.00 0.00 0.00 74 1004.9
20260505230154 11 47 0.0 4.8 0.00 0.00 0.00 74 1004.8
20260505225653 11 48 0.0 4.8 0.00 0.00 0.00 74 1004.4
20260505225154 11 32 0.0 3.2 0.00 0.00 0.00 75 1004.6
20260505224653 11 24 0.0 3.2 0.00 0.00 0.00 74 1004.7
20260505224154 11 16 0.0 4.8 0.00 0.00 0.00 74 1004.6
20260505223653 11 13 0.0 6.4 0.00 0.00 0.00 74 1004.5
20260505223154 11 18 0.0 6.4 0.00 0.00 0.00 73 1004.2
20260505222653 11 46 0.0 3.2 0.00 0.00 0.00 74 1004.1
20260505222154 11 38 0.0 14.5 0.00 0.00 0.00 74 1004.0
20260505221654 11 40 0.0 14.5 0.00 0.00 0.00 74 1004.1
20260505221152 11 43 0.0 6.4 0.00 0.00 0.00 74 1004.2
20260505220653 11 44 0.0 11.3 0.00 0.00 0.00 75 1004.4
20260505220153 11 39 0.0 11.3 0.00 0.00 0.00 75 1004.1
20260505215654 11 29 0.0 6.4 0.00 0.00 0.00 76 1003.9
20260505215153 11 32 0.0 6.4 0.00 0.00 0.00 76 1004.2
20260505214654 11 30 0.0 4.8 0.00 0.00 0.00 75 1004.4
20260505214153 11 35 0.0 1.6 0.00 0.00 0.00 76 1004.3
20260505213656 11 22 0.0 4.8 0.00 0.00 0.00 76 1004.1
20260505213156 11 23 0.0 6.4 0.00 0.00 0.00 76 1004.0
20260505212656 11 32 0.0 6.4 0.00 0.00 0.00 76 1004.0
20260505212153 11 33 0.0 16.1 0.00 0.00 0.00 77 1003.8
20260505211153 11 34 0.0 6.4 0.00 0.00 0.00 77 1003.7
20260505210654 11 46 0.0 11.3 0.00 0.00 0.00 78 1003.7
20260505210153 11 47 0.0 11.3 0.00 0.00 0.00 79 1003.9
20260505205654 11 38 0.0 3.2 0.00 0.00 0.00 80 1004.0
20260505205153 11 44 0.0 6.4 0.00 0.00 0.00 80 1004.2
20260505204153 11 18 0.0 8.0 0.00 0.00 0.00 81 1003.9
20260505203654 11 47 0.0 6.4 0.00 0.00 0.00 81 1003.8
20260505203153 11 54 0.0 12.9 0.00 0.00 0.00 82 1003.6
20260505202652 11 47 0.0 12.9 0.00 0.00 0.00 83 1003.5
20260505202153 11 38 0.0 11.3 0.00 0.00 0.00 82 1003.6
20260505201653 12 23 0.0 3.2 0.00 0.00 0.00 83 1003.6
20260505201154 12 38 0.0 4.8 0.00 0.00 0.00 83 1003.5
20260505200653 12 40 0.0 4.8 0.00 0.00 0.00 82 1003.6
20260505200155 12 34 0.0 9.7 0.00 0.00 0.00 82 1003.5
20260505195653 12 40 0.0 9.7 0.00 0.00 0.00 82 1003.7
20260505195154 12 43 0.0 9.7 0.00 0.00 0.00 83 1003.7
20260505194653 12 41 0.0 9.7 0.00 0.00 0.00 82 1003.6
20260505194152 12 44 0.0 4.8 0.00 0.00 0.00 83 1003.5
20260505193654 12 33 0.0 6.4 0.00 0.00 0.00 83 1003.4
20260505193153 12 36 0.0 6.4 0.00 0.00 0.00 83 1003.4
20260505192654 12 41 0.0 9.7 0.00 0.00 0.00 83 1003.5
20260505192153 12 38 0.0 9.7 0.00 0.00 0.00 84 1003.2
20260505191654 12 47 0.0 3.2 0.00 0.00 0.00 84 1003.2
20260505191153 12 36 0.0 8.0 0.00 0.00 0.00 84 1003.0
20260505190654 12 30 0.0 8.0 0.00 0.00 0.00 84 1003.0
20260505190153 12 23 0.0 3.2 0.00 0.00 0.00 84 1003.1
20260505185654 12 24 0.0 3.2 0.00 0.00 0.00 84 1003.0
20260505185153 12 35 0.0 8.0 0.00 0.00 0.00 85 1002.9
20260505184652 12 37 0.0 8.0 0.00 0.00 0.00 84 1002.9
20260505184154 12 47 0.0 8.0 0.00 0.00 0.00 84 1002.9
20260505183653 12 58 0.0 6.4 0.00 0.00 0.00 84 1003.0
20260505183154 12 49 0.0 6.4 0.00 0.00 0.00 85 1003.0
20260505182654 12 29 0.0 1.6 0.00 0.00 0.00 85 1003.1
20260505182153 12 32 0.0 11.3 0.00 0.00 0.00 85 1002.9
20260505181654 12 31 0.0 11.3 0.00 0.00 0.00 85 1002.7
20260505181153 12 35 0.0 4.8 0.00 0.00 0.00 85 1002.4
20260505180654 12 41 0.0 4.8 0.00 0.00 0.00 86 1002.0
20260505180153 12 43 0.0 14.5 0.00 0.00 0.00 86 1002.4
20260505175653 12 43 0.0 14.5 0.00 0.00 0.00 86 1002.3
20260505175154 12 47 0.0 3.2 0.00 0.00 0.00 86 1002.3
20260505174653 12 42 0.0 12.9 0.00 0.00 0.00 86 1002.3
20260505174154 12 41 0.0 12.9 0.00 0.00 0.00 86 1002.4
20260505173653 12 27 0.0 3.2 0.00 0.00 0.00 86 1002.3
20260505173154 12 34 0.0 4.8 0.00 0.00 0.00 86 1002.4
20260505172653 12 48 0.0 6.4 0.00 0.00 0.00 86 1002.2
20260505172158 12 39 0.0 6.4 0.00 0.00 0.00 86 1001.8
20260505171653 13 46 0.0 8.0 0.00 0.00 0.00 87 1001.9
20260505171155 13 44 0.0 8.0 0.00 0.00 0.00 86 1001.8
20260505170654 13 39 0.0 6.4 0.00 0.00 0.00 86 1001.7
20260505170152 13 42 0.0 14.5 0.00 0.00 0.00 86 1001.6
20260505165653 13 41 0.0 14.5 0.00 0.00 0.00 87 1001.6
20260505165153 13 36 0.0 8.0 0.00 0.00 0.00 86 1001.6
20260505164653 13 35 0.0 8.0 0.00 0.00 0.00 86 1001.5
20260505164154 13 44 0.0 17.7 0.00 0.00 0.00 86 1001.6
20260505163653 14 50 0.0 17.7 0.00 0.00 0.00 86 1001.4
20260505163154 14 35 0.0 3.2 0.00 0.00 0.00 86 1001.3
20260505162653 14 40 0.0 6.4 0.00 0.00 0.00 86 1001.3
20260505162154 15 38 0.0 6.4 0.00 0.00 0.00 86 1001.2
20260505161653 15 24 0.0 3.2 0.00 0.00 0.00 86 1001.1
20260505161154 15 28 0.0 3.2 0.00 0.00 0.00 86 1001.1
20260505160653 15 43 0.0 1.6 0.00 0.00 0.00 86 1001.0
20260505160154 15 51 0.0 1.6 0.00 0.00 0.00 87 1001.0
20260505153153 16 0 0.0 0.0 0.00 0.00 0.00 85 1000.6
20260505152654 17 28 0.0 4.8 0.00 0.00 0.00 84 1000.5
20260505152153 18 28 0.0 4.8 0.00 0.00 0.00 85 1000.3
20260505151655 18 0 0.0 0.0 0.00 0.00 0.00 86 1000.3
20260505151154 18 0 0.0 0.0 0.00 0.00 0.00 86 1000.3
20260505150655 18 0 0.0 0.0 0.00 0.00 0.00 86 1000.3
20260505150154 18 0 0.0 0.0 0.00 0.00 0.00 85 1000.2
20260505140155 20 0 0.0 0.0 0.00 0.00 0.00 82 999.7
20260505130154 17 0 0.0 0.0 0.00 0.00 0.00 86 999.6
20260505124655 17 0 0.0 0.0 0.00 0.00 0.00 86 999.7
20260505124154 17 0 0.0 0.0 0.00 0.00 0.00 86 999.7
20260505123653 17 0 0.0 0.0 0.00 0.00 0.00 86 999.6
20260505123155 17 0 0.0 0.0 0.00 0.00 0.00 86 999.5
20260505122653 17 0 0.0 0.0 0.00 0.00 0.00 86 999.6
20260505122155 17 0 0.0 0.0 0.00 0.00 0.00 86 999.6
20260505121654 17 0 0.0 0.0 0.00 0.00 0.00 86 999.6
20260505121156 17 0 0.0 0.0 0.00 0.00 0.00 86 999.5
20260505120654 17 0 0.0 0.0 0.00 0.00 0.00 86 999.4
20260505120157 17 0 0.0 0.0 0.00 0.00 0.00 86 999.3
20260505115155 17 0 0.0 0.0 0.00 0.00 0.00 86 999.3
20260505114655 17 0 0.0 0.0 0.00 0.00 0.00 86 999.3
20260505114155 17 0 0.0 0.0 0.00 0.00 0.00 86 999.4
20260505113657 17 0 0.0 0.0 0.00 0.00 0.00 86 999.4
20260505113154 17 0 0.0 0.0 0.00 0.00 0.00 86 999.4
20260505112655 17 0 0.0 0.0 0.00 0.00 0.00 86 999.4
20260505112154 17 0 0.0 0.0 0.00 0.00 0.00 86 999.4
20260505111655 17 0 0.0 0.0 0.00 0.00 0.00 86 999.3
20260505111155 17 0 0.0 0.0 0.00 0.00 0.00 86 999.1
20260505110654 17 0 0.0 0.0 0.00 0.00 0.00 86 999.0
20260505110154 17 0 0.0 0.0 0.00 0.00 0.00 86 998.9